XML Sitemap

This is a XML Sitemap which is supposed to be processed by search engines which follow the XML Sitemap standard like Ask.com, Bing, Google and Yahoo.
It was generated using the WordPress content management system and the Google Sitemap Generator Plugin by Arne Brachhold.
You can find more information about XML sitemaps on sitemaps.org and Google's list of sitemap programs.

URLPriorityChange frequencyLast modified (GMT)
https://100frames.com/32-kid-friendly-printable-calendar-2019/50%Daily2019-03-07 01:46
https://100frames.com/35-printable-desk-calendar-july-2019/50%Daily2019-03-07 01:46
https://100frames.com/32-2019-calendar-blank-printable/50%Daily2019-03-07 01:44
https://100frames.com/30-printable-eastern-orthodox-calendar/50%Daily2019-03-07 01:41
https://100frames.com/32-printable-countdown-calendar-template/50%Daily2019-03-07 01:40
https://100frames.com/25-printable-calendar-pages-weekly/50%Daily2019-03-07 01:39
https://100frames.com/32-law-of-attraction-printable-calendar/50%Daily2019-03-07 01:37
https://100frames.com/33-printable-seven-day-calendar/50%Daily2019-03-07 01:35
https://100frames.com/30-julian-calendar-2019-printable/50%Daily2019-03-07 01:35
https://100frames.com/35-printable-calendar-2-month-2019/50%Daily2019-03-07 01:32
https://100frames.com/31-2019-calendar-philippines/50%Daily2019-03-07 01:31
https://100frames.com/32-daily-picture-calendar-tasks-printable/50%Daily2019-03-07 01:29
https://100frames.com/33-calendars-for-2019-printable/50%Daily2019-03-07 01:26
https://100frames.com/32-inspirational-calendar-printable/50%Daily2019-03-07 01:26
https://100frames.com/35-printable-september-calendar-portrait/50%Daily2019-03-07 01:24
https://100frames.com/34-printable-bobs-burger-calendar/50%Daily2019-03-07 01:21
https://100frames.com/30-printable-monthly-menu-calendar/50%Daily2019-03-07 01:20
https://100frames.com/34-2009-printable-calendar-year/50%Daily2019-03-07 01:19
https://100frames.com/35-evsc-school-calendar/50%Daily2019-03-07 01:17
https://100frames.com/30-daily-schedule-template-excel/50%Daily2019-03-07 01:15
https://100frames.com/33-when-is-mardi-gras-2019/50%Daily2019-03-07 01:16
https://100frames.com/30-printable-calendar-8-5-x-5-5/50%Daily2019-03-07 01:13
https://100frames.com/32-september-calendar-template/50%Daily2019-03-07 01:11
https://100frames.com/33-printable-calendar-december-2002/50%Daily2019-03-07 01:10
https://100frames.com/32-monthly-desk-pad-calendar/50%Daily2019-03-07 01:08
https://100frames.com/32-daily-planner-calendar-2019-printable/50%Daily2019-03-07 01:06
https://100frames.com/33-free-printable-half-page-monthly-calendar-2019/50%Daily2019-03-07 01:05
https://100frames.com/32-printable-calendar-2-weeks/50%Daily2019-03-07 01:04
https://100frames.com/34-free-printable-days-of-the-week-calendar/50%Daily2019-03-07 01:02
https://100frames.com/34-printable-march-2019-calendar-template/50%Daily2019-03-07 01:00
https://100frames.com/33-printable-weekly-appointment-calendar/50%Daily2019-03-07 00:59
https://100frames.com/34-august-2019-calendar-printable-vertical/50%Daily2019-03-07 00:57
https://100frames.com/35-dec-15-calendar/50%Daily2019-03-07 00:56
https://100frames.com/33-year-calendar-printable-free/50%Daily2019-03-07 00:55
https://100frames.com/35-free-printable-calendar-net-june2019/50%Daily2019-03-07 00:52
https://100frames.com/22-free-2019-calendar-by-mail/50%Daily2019-03-07 00:51
https://100frames.com/32-printable-calendar-with-flowers/50%Daily2019-03-07 00:50
https://100frames.com/34-printable-bold-august-2019-calendar/50%Daily2019-03-07 00:47
https://100frames.com/19-september-2019-printable-calendar-tumblr/50%Daily2019-03-07 00:45
https://100frames.com/34-printable-calendar-july-september-2019/50%Daily2019-03-07 00:45
https://100frames.com/32-july-2019-blank-calendar-printable/50%Daily2019-03-07 00:43
https://100frames.com/33-printable-work-week-calendar/50%Daily2019-03-07 00:40
https://100frames.com/26-free-november-2019-printable-calendar/50%Daily2019-03-07 00:40
https://100frames.com/35-word-calendar-printable/50%Daily2019-03-07 00:38
https://100frames.com/34-family-calendar-printable-monthly/50%Daily2019-03-07 00:36
https://100frames.com/34-plain-2019-printable-calendar/50%Daily2019-03-07 00:35
https://100frames.com/32-printable-january-calendar-page/50%Daily2019-03-07 00:32
https://100frames.com/34-may-2019-calendar-printable-floral/50%Daily2019-03-07 00:31
https://100frames.com/31-july-2916-calendar/50%Daily2019-03-07 00:30
https://100frames.com/34-fun-printable-calendars/50%Daily2019-03-07 00:27
https://100frames.com/34-free-printables-for-calendar-math/50%Daily2019-03-07 00:25
https://100frames.com/33-blank-2019-printable-calendars/50%Daily2019-03-07 00:25
https://100frames.com/31-september-month-calendar-printable/50%Daily2019-03-07 00:23
https://100frames.com/30-printable-monthly-schedule/50%Daily2019-03-07 00:20
https://100frames.com/30-printable-november-2019/50%Daily2019-03-07 00:20
https://100frames.com/31-monthly-calendar-2019-februaury-printable/50%Daily2019-03-07 00:18
https://100frames.com/33-printable-june-monthly-calendar-2019/50%Daily2019-03-07 00:15
https://100frames.com/32-june-2019-editable-calendar/50%Daily2019-03-07 00:15
https://100frames.com/24-printable-federal-pay-period-calendar-2019/50%Daily2019-03-07 00:13
https://100frames.com/32-cute-september-2019-calendar/50%Daily2019-03-07 00:11
https://100frames.com/35-printable-calendar-2019-free-cute/50%Daily2019-03-07 00:09
https://100frames.com/33-command-center-calendar/50%Daily2019-03-07 00:07
https://100frames.com/33-calendar-printable-2019-october/50%Daily2019-03-07 00:06
https://100frames.com/25-free-printable-november-calendar-2019/50%Daily2019-03-07 00:03
https://100frames.com/30-free-may-2019-calendar-template/50%Daily2019-03-07 00:01
https://100frames.com/23-calendar-month-of-september-2019/50%Daily2019-03-07 00:00
https://100frames.com/33-beer-advent-calendar-costco/50%Daily2019-03-06 23:59
https://100frames.com/32-academic-calendar-printable-2019/50%Daily2019-03-06 23:56
https://100frames.com/34-18-month-calendar-printable/50%Daily2019-03-06 23:55
https://100frames.com/30-printable-calendar-with-comments/50%Daily2019-03-06 23:53
https://100frames.com/33-free-printable-july-2019-calendar-pdf/50%Daily2019-03-06 23:50
https://100frames.com/34-printable-march-calendar-template/50%Daily2019-03-06 23:51
https://100frames.com/31-free-calendar-april-2019/50%Daily2019-03-06 23:48
https://100frames.com/33-dry-erase-magnetic-calendar/50%Daily2019-03-06 23:46
https://100frames.com/30-lcisd-calendar-2019-2020/50%Daily2019-03-06 23:46
https://100frames.com/34-printable-calendar-six-months/50%Daily2019-03-06 23:43
https://100frames.com/20-september-october-calendar-printable/50%Daily2019-03-06 23:41
https://100frames.com/20-chinese-calendar-calculator/50%Daily2019-03-06 23:39
https://100frames.com/34-june-july-holidays-2019/50%Daily2019-03-06 23:39
https://100frames.com/34-when-is-labor-day-2019/50%Daily2019-03-06 23:36
https://100frames.com/32-printable-calendar-midori/50%Daily2019-03-06 23:35
https://100frames.com/32-ovulation-calendar-chart-printable/50%Daily2019-03-06 23:34
https://100frames.com/34-september-printable-monthly-calendar-2019/50%Daily2019-03-06 23:32
https://100frames.com/30-printable-fillable-calendar/50%Daily2019-03-06 23:30
https://100frames.com/30-telugu-calendar-2019-2020-india/50%Daily2019-03-06 23:30
https://100frames.com/25-free-calendar-printable-floral/50%Daily2019-03-06 23:27
https://100frames.com/34-american-calendar-2019-pdf-printable/50%Daily2019-03-06 23:25
https://100frames.com/35-year-long-calendar/50%Daily2019-03-06 23:26
https://100frames.com/35-disney-annual-pass-calendar/50%Daily2019-03-06 23:23
https://100frames.com/32-design-your-own-calendar/50%Daily2019-03-06 23:21
https://100frames.com/30-best-free-printable-calendar-2019/50%Daily2019-03-06 23:20
https://100frames.com/34-july-2019-printable-editable-calendar/50%Daily2019-03-06 23:19
https://100frames.com/34-printable-calendar-2019-with-holidays-free/50%Daily2019-03-06 23:17
https://100frames.com/21-telugu-calendar-september-2019-chicago/50%Daily2019-03-06 23:16
https://100frames.com/33-mayan-calendar-baby-gender/50%Daily2019-03-06 23:14
https://100frames.com/32-free-printable-guess-babys-birthday-calendar/50%Daily2019-03-06 23:12
https://100frames.com/31-120-day-calendar-printable/50%Daily2019-03-06 23:10
https://100frames.com/32-mikvah-calendar-printable/50%Daily2019-03-06 23:10
https://100frames.com/32-november-15-calendar/50%Daily2019-03-06 23:08
https://100frames.com/35-dc-comic-calendar-printable/50%Daily2019-03-06 23:06
https://100frames.com/35-kalender-2019/50%Daily2019-03-06 23:06
https://100frames.com/33-apple-calendar-for-windows/50%Daily2019-03-06 23:03
https://100frames.com/35-word-doc-printable-calendar/50%Daily2019-03-06 23:01
https://100frames.com/33-calendars-for-september-2019/50%Daily2019-03-06 23:00
https://100frames.com/30-cute-july-calendar-2019-printable/50%Daily2019-03-06 22:59
https://100frames.com/34-august-2019-calendar-printable-with-space-for-imagines/50%Daily2019-03-06 22:57
https://100frames.com/24-calendar-printable-out-2019-february/50%Daily2019-03-06 22:55
https://100frames.com/34-free-printable-pocket-calendar-2019/50%Daily2019-03-06 22:56
https://100frames.com/31-free-printable-organizer-calendar-pages/50%Daily2019-03-06 22:53
https://100frames.com/35-printable-black-and-white-calendar-by-month/50%Daily2019-03-06 22:50
https://100frames.com/30-monthly-printable-calendar-2/50%Daily2019-03-06 22:51
https://100frames.com/25-calendar-noviembre-2019-printable/50%Daily2019-03-06 22:48
https://100frames.com/35-2019-black-n-gold-calendar-printable/50%Daily2019-03-06 22:46
https://100frames.com/31-2019-full-calendar-printable/50%Daily2019-03-06 22:45
https://100frames.com/31-30-day-ab-challenge-calendar-printable/50%Daily2019-03-06 22:44
https://100frames.com/30-galveston-calendar-of-events/50%Daily2019-03-06 22:44
https://100frames.com/33-double-sided-2019-calendar-printable-calendar-template/50%Daily2019-03-06 22:42
https://100frames.com/33-free-printable-calendar-september-2019-cute/50%Daily2019-03-06 22:41
https://100frames.com/33-march-2019-printable-calendar-holidays/50%Daily2019-03-06 22:39
https://100frames.com/34-2019-wall-calendar-full-year-calendar-big-classic/50%Daily2019-03-06 22:37
https://100frames.com/31-blank-december-calendar-kindergarten/50%Daily2019-03-06 22:35
https://100frames.com/14-wikidates-org-2/50%Daily2019-03-06 22:42
https://100frames.com/32-printable-calendar-to-do-list/50%Daily2019-03-06 22:33
https://100frames.com/35-make-your-own-calendar-free-printable-2019/50%Daily2019-03-06 22:30
https://100frames.com/32-august-2009-calendar-printable/50%Daily2019-03-06 22:31
https://100frames.com/33-print-off-calendar-2019/50%Daily2019-03-06 22:27
https://100frames.com/30-memphis-grizzlies-printable-calendar/50%Daily2019-03-06 22:25
https://100frames.com/32-movierulz-telugu-movies-download-2019/50%Daily2019-03-06 22:25
https://100frames.com/34-2019-18-printable-calendar/50%Daily2019-03-06 22:23
https://100frames.com/22-2019-printable-calendar-with-canadian-holidays/50%Daily2019-03-06 22:20
https://100frames.com/19-cute-june-2019-calendar-printable/50%Daily2019-03-06 22:20
https://100frames.com/34-kdhx-concert-calendar/50%Daily2019-03-06 22:18
https://100frames.com/35-calendar-may-2019-printable-word/50%Daily2019-03-06 22:16
https://100frames.com/31-free-printable-calendar-pages-weekly/50%Daily2019-03-06 22:16
https://100frames.com/34-printable-calendar-2019-portrait/50%Daily2019-03-06 22:16
https://100frames.com/32-june-2019-printable-calendar-landscape/50%Daily2019-03-06 22:13
https://100frames.com/21-free-printable-goal-charts/50%Daily2019-03-06 22:11
https://100frames.com/34-june-calendar-printable-template/50%Daily2019-03-06 22:10
https://100frames.com/30-august-2019-printable-calendar-uk/50%Daily2019-03-06 22:09
https://100frames.com/34-christmas-countdown-calendar-2019-printable-free/50%Daily2019-03-06 22:07
https://100frames.com/33-printable-daily-diet-calendar/50%Daily2019-03-06 22:05
https://100frames.com/32-july-4th-calendar/50%Daily2019-03-06 22:04
https://100frames.com/34-printable-calendar-2019-hole-punch/50%Daily2019-03-06 22:01
https://100frames.com/30-feburary-2019-calendar-printable/50%Daily2019-03-06 22:00
https://100frames.com/32-small-calendar-template/50%Daily2019-03-06 21:59
https://100frames.com/34-ccisd-calendar-2019/50%Daily2019-03-06 21:57
https://100frames.com/30-free-printable-calendar-images-april-2019/50%Daily2019-03-06 21:55
https://100frames.com/32-printable-calendar-summer-2019/50%Daily2019-03-06 21:53
https://100frames.com/32-printable-teacher-templates-monthly-academic-calendar-2019-2019/50%Daily2019-03-06 21:51
https://100frames.com/35-free-printable-meal-calendar/50%Daily2019-03-06 21:51
https://100frames.com/35-november-2019-printable-calendars/50%Daily2019-03-06 21:48
https://100frames.com/30-february-calendar-template-2019/50%Daily2019-03-06 21:46
https://100frames.com/32-printable-calendar-april-may-june-july-2019/50%Daily2019-03-06 21:45
https://100frames.com/30-september-printable-2019-calendar/50%Daily2019-03-06 21:43
https://100frames.com/32-june-printable-calendar-2019-pinterest/50%Daily2019-03-06 21:42
https://100frames.com/32-printable-pdf-calendar/50%Daily2019-03-06 21:40
https://100frames.com/33-calendar-2019-june-july/50%Daily2019-03-06 21:40
https://100frames.com/33-printable-week-calendar-pdf/50%Daily2019-03-06 21:37
https://100frames.com/31-20216-november-calendar-printable/50%Daily2019-03-06 21:35
https://100frames.com/25-2019-and-2019-calendar-printable-australia/50%Daily2019-03-06 21:34
https://100frames.com/30-old-calendar-orthodox/50%Daily2019-03-06 21:32
https://100frames.com/24-20197-calendar-printable/50%Daily2019-03-06 21:30
https://100frames.com/34-two-page-spread-free-printable-calendar-2019/50%Daily2019-03-06 21:30
https://100frames.com/34-projects-in-parenting-toddler-wekly-calendar-free-printable/50%Daily2019-03-06 21:28
https://100frames.com/35-wordpress-printable-calendar/50%Daily2019-03-06 21:26
https://100frames.com/25-september-2019-blank-calendar-printable/50%Daily2019-03-06 21:24